Total_Precipitation_Accumulation
2.62 2.76 2.87 2.84 2.90 2.92 3.03 3.18 3.32 3.11 2.79 2.53 2.43 2.39 2.41 2.48 2.70 2.32 2.27 2.48 2.31 2.16 2.05 2.00 2.00 2.18 2.27 2.23 2.21 2.27 2.34 2.42 2.56 2.68 2.80 3.01 3.17 3.31
2.31 2.42 2.50 2.52 2.66 2.70 2.79 2.91 3.03 3.00 2.82 2.47 2.41 2.39 2.33 2.16 2.38 2.07 2.12 2.31 2.12 2.01 1.95 1.96 1.91 1.91 1.97 2.01 1.99 1.95 1.95 1.93 1.98 2.04 2.13 2.26 2.48 2.75
2.28 2.33 2.36 2.39 2.50 2.48 2.50 2.55 2.66 2.85 2.94 2.71 2.53 2.46 2.45 2.34 2.19 1.98 1.86 1.86 1.80 1.91 1.88 1.86 1.81 1.80 1.83 1.83 1.78 1.73 1.67 1.65 1.67 1.72 1.78 1.89 1.97 2.10
2.21 2.35 2.30 2.24 2.27 2.31 2.39 2.40 2.41 2.58 2.74 2.67 2.51 2.38 2.37 2.34 2.27 2.17 1.81 1.63 1.60 1.66 1.62 1.57 1.59 1.62 1.60 1.61 1.60 1.56 1.51 1.47 1.49 1.52 1.58 1.64 1.75 1.87
1.99 2.05 2.08 2.10 2.02 2.01 2.06 2.14 2.14 2.17 2.42 2.45 2.33 2.26 2.19 2.15 2.23 2.16 1.94 1.94 1.55 1.49 1.42 1.36 1.35 1.36 1.35 1.33 1.35 1.41 1.42 1.37 1.34 1.37 1.44 1.53 1.60 1.68
1.65 1.67 1.75 1.88 1.90 1.91 1.85 1.94 2.03 2.18 2.28 2.32 2.20 2.13 2.14 2.02 2.11 2.10 2.05 1.91 1.70 1.41 1.42 1.28 1.20 1.16 1.15 1.16 1.15 1.16 1.21 1.28 1.39 1.39 1.32 1.27 1.30 1.36
1.45 1.38 1.38 1.61 1.77 1.72 1.55 1.72 1.96 2.13 2.19 2.21 2.09 1.97 1.90 2.00 1.96 1.90 1.95 1.94 1.84 1.64 1.64 1.42 1.31 1.22 1.23 1.23 1.17 1.12 1.13 1.14 1.20 1.25 1.28 1.23 1.21 1.19
1.46 1.46 1.35 1.39 1.47 1.43 1.34 1.47 1.74 1.83 1.95 2.12 2.09 1.97 1.88 1.90 1.94 1.94 2.00 2.09 2.04 1.77 1.81 1.64 1.50 1.48 1.36 1.27 1.25 1.16 1.13 1.16 1.14 1.12 1.14 1.17 1.17 1.17
1.40 1.43 1.26 1.17 1.36 1.38 1.38 1.36 1.42 1.45 1.57 1.92 2.12 1.97 1.93 1.99 2.14 2.08 2.18 2.19 2.03 1.92 2.08 1.98 1.68 1.54 1.25 1.16 1.25 1.13 1.11 1.15 1.17 1.13 1.10 1.12 1.13 1.16
1.32 1.37 1.43 1.33 1.26 1.32 1.33 1.33 1.37 1.41 1.38 1.45 1.71 1.83 1.87 2.01 2.16 2.23 2.35 2.27 2.12 2.05 2.18 2.21 1.82 1.67 1.37 1.36 1.30 1.13 1.08 1.07 1.11 1.10 1.09 1.10 1.16 1.22
1.27 1.26 1.34 1.35 1.34 1.30 1.34 1.46 1.51 1.50 1.29 1.30 1.37 1.51 1.61 1.76 1.91 2.06 2.31 2.50 2.31 2.02 2.04 2.22 1.94 1.80 1.63 1.51 1.35 1.25 1.14 1.11 1.06 1.06 1.07 1.10 1.18 1.29
1.35 1.33 1.27 1.28 1.32 1.27 1.37 1.56 1.57 1.53 1.41 1.36 1.48 1.58 1.58 1.70 1.80 1.95 2.26 2.39 2.24 2.12 1.89 2.03 1.97 2.05 2.02 1.64 1.46 1.40 1.32 1.22 1.09 1.05 1.04 1.07 1.17 1.20
1.26 1.34 1.28 1.21 1.19 1.21 1.34 1.44 1.46 1.45 1.57 1.70 1.71 1.68 1.69 1.76 1.78 1.84 2.09 2.25 2.28 2.21 1.92 2.05 2.08 2.17 2.24 1.87 1.58 1.53 1.51 1.45 1.34 1.29 1.27 1.23 1.24 1.20
1.26 1.29 1.25 1.19 1.17 1.22 1.25 1.31 1.34 1.42 1.62 1.82 1.83 1.74 1.64 1.61 1.66 1.71 1.89 2.07 2.13 2.06 1.95 2.06 2.21 2.22 2.13 1.86 1.67 1.54 1.52 1.57 1.68 1.73 1.66 1.64 1.50 1.44
1.14 1.19 1.16 1.16 1.16 1.27 1.31 1.33 1.43 1.62 1.76 1.83 1.84 1.77 1.68 1.61 1.61 1.60 1.72 1.95 1.96 1.77 1.63 1.76 2.05 2.15 2.18 2.01 1.80 1.74 1.70 1.63 1.74 1.97 2.01 1.87 1.69 1.55
1.04 1.10 1.17 1.23 1.25 1.36 1.49 1.57 1.61 1.68 1.67 1.80 1.87 1.79 1.68 1.65 1.66 1.64 1.77 1.89 1.93 1.81 1.61 1.58 1.77 2.06 2.21 2.05 1.94 1.88 1.87 1.89 1.83 1.93 2.11 2.15 1.94 1.64
0.96 1.10 1.32 1.37 1.46 1.55 1.60 1.64 1.69 1.63 1.58 1.61 1.71 1.76 1.78 1.71 1.65 1.60 1.74 1.81 1.89 1.83 1.69 1.60 1.65 1.78 1.85 1.92 1.95 1.84 1.82 1.87 1.93 2.02 2.23 2.38 2.24 1.88
1.00 1.17 1.29 1.35 1.45 1.51 1.54 1.54 1.58 1.60 1.54 1.55 1.60 1.63 1.65 1.63 1.66 1.61 1.66 1.83 1.90 1.76 1.65 1.58 1.58 1.70 1.79 1.77 1.78 1.76 1.75 1.88 2.00 2.08 2.09 2.24 2.37 2.12
1.21 1.32 1.30 1.36 1.44 1.42 1.42 1.44 1.48 1.51 1.46 1.47 1.45 1.46 1.50 1.50 1.57 1.61 1.59 1.66 1.68 1.58 1.54 1.53 1.61 1.76 1.84 1.84 1.73 1.72 1.80 1.90 2.03 2.08 2.06 2.08 2.24 2.12
1.33 1.39 1.40 1.39 1.42 1.42 1.43 1.43 1.39 1.35 1.33 1.38 1.42 1.44 1.46 1.43 1.44 1.45 1.46 1.48 1.56 1.54 1.54 1.59 1.62 1.66 1.74 1.78 1.91 1.93 1.81 1.74 1.83 2.02 2.14 2.14 2.18 2.13
1.29 1.33 1.38 1.37 1.35 1.42 1.40 1.34 1.27 1.24 1.26 1.27 1.30 1.36 1.40 1.34 1.35 1.32 1.31 1.34 1.40 1.44 1.46 1.46 1.44 1.45 1.48 1.61 1.78 1.88 1.85 1.87 1.84 1.91 2.02 2.11 2.03 1.89
1.16 1.18 1.16 1.17 1.25 1.32 1.28 1.20 1.14 1.17 1.23 1.24 1.25 1.24 1.23 1.23 1.24 1.24 1.24 1.27 1.32 1.28 1.27 1.27 1.30 1.40 1.50 1.65 1.73 1.79 1.82 1.71 1.66 1.76 1.81 1.73 1.63 1.69
1.08 1.08 1.05 1.04 1.10 1.18 1.19 1.15 1.09 1.09 1.10 1.15 1.18 1.16 1.14 1.14 1.09 1.09 1.13 1.15 1.16 1.16 1.17 1.22 1.27 1.38 1.41 1.39 1.43 1.47 1.47 1.45 1.41 1.39 1.49 1.59 1.56 1.55